Chattanooga, TN

1:00 AM EDT on September 25, 2017 (GMT -0400)
Lovell

Weather History for KCHA - June, 2014

Change the Weather History Date:

Wednesday, June 18, 2014

  Actual Average Record
Temperature  
Mean Temperature 82 °F 77 °F  
Max Temperature 92 °F 88 °F 100 °F (1936)
Min Temperature 72 °F 67 °F 48 °F (1974)
Cooling Degree Days 17 12  
Month to date cooling degree days 222 185  
Year to date cooling degree days 480 381  
Since 1 June cooling degree days 222 185  
Growing Degree Days 32 (Base 50)    
Moisture  
Dew Point 69 °F    
Average Humidity 66    
Maximum Humidity 87    
Minimum Humidity 44    
Precipitation  
Precipitation T in 0.14 in 1.95 in (1882)
Month to date precipitation 2.73 2.34  
Year to date precipitation 20.02 25.16  
Snow  
Snow 0.00 in - - ()
Month to date snowfall 0.0  
Since 1 June snowfall 0.0  
Snow Depth 0.00 in    
Sea Level Pressure  
Sea Level Pressure 30.10 in    
Wind  
Wind Speed 3 mph (South)    
Max Wind Speed 20 mph    
Max Gust Speed 24 mph    
Visibility 9 miles    
Events      
T = Trace of Precipitation, MM = Missing Value Source: NWS Daily Summary

Daily Weather History Graph

Daily Weather History Graph

Search for Another Location

Airport or City:

Trip Planner

Search our weather history database for the weather conditions in past years. The results will help you decide how hot, cold, wet, or windy it might be!

Date:

Astronomy

Jun. 18, 2014 Rise Set
Actual Time 6:26 AM EDT 8:57 PM EDT
Civil Twilight 5:56 AM EDT 9:27 PM EDT
Nautical Twilight 5:20 AM EDT 10:03 PM EDT
Astronomical Twilight 4:39 AM EDT 10:44 PM EDT
Moon 12:37 AM EDT (6/18) 12:36 PM EDT (6/18)
Length of Visible Light 15h 30m
Length of Day
14h 30m
Waning Gibbous, 63% of the Moon is Illuminated
Jun 18
Waning Gibbous
Jun 19
Last Quarter
Jun 27
New
Jul 5
First Quarter
Jul 12
Full

Hourly Weather History & Observations

Time (EDT) Temp. Heat Index Dew Point Humidity Pressure Visibility Wind Dir Wind Speed Gust Speed Precip Events Conditions
12:53 AM 79.0 °F - 72.0 °F 79% 30.11 in 10.0 mi South 3.5 mph - N/A   Clear
1:53 AM 75.9 °F - 71.1 °F 85% 30.10 in 9.0 mi Calm Calm - N/A   Clear
2:53 AM 75.0 °F - 70.0 °F 84% 30.10 in 8.0 mi Calm Calm - N/A   Clear
3:53 AM 75.0 °F - 70.0 °F 84% 30.09 in 9.0 mi Calm Calm - N/A   Clear
4:53 AM 73.0 °F - 70.0 °F 90% 30.09 in 7.0 mi WNW 3.5 mph - N/A   Clear
5:53 AM 73.4 °F - 69.8 °F 88% 30.12 in 8.0 mi Calm Calm - N/A   Clear
6:53 AM 73.0 °F - 69.1 °F 87% 30.11 in 7.0 mi Calm Calm - N/A   Clear
7:53 AM 75.9 °F - 70.0 °F 82% 30.12 in 7.0 mi Calm Calm - N/A   Partly Cloudy
8:53 AM 80.1 °F 83.2 °F 70.0 °F 71% 30.13 in 7.0 mi Variable 3.5 mph - N/A   Scattered Clouds
9:53 AM 82.0 °F 85.9 °F 70.0 °F 67% 30.14 in 9.0 mi Calm Calm - N/A   Scattered Clouds
10:53 AM 87.1 °F 91.3 °F 69.1 °F 55% 30.14 in 10.0 mi SW 5.8 mph - N/A   Partly Cloudy
11:53 AM 88.0 °F 92.1 °F 69.1 °F 53% 30.14 in 10.0 mi WNW 3.5 mph - N/A   Scattered Clouds
12:53 PM 90.0 °F 92.8 °F 66.9 °F 46% 30.12 in 10.0 mi Variable 4.6 mph - N/A   Scattered Clouds
1:53 PM 89.1 °F 91.3 °F 66.0 °F 46% 30.11 in 10.0 mi WSW 10.4 mph - N/A   Mostly Cloudy
2:53 PM 90.0 °F 91.7 °F 64.9 °F 43% 30.09 in 10.0 mi Variable 4.6 mph - 0.00 in   Scattered Clouds
3:53 PM 91.0 °F 95.2 °F 68.0 °F 47% 30.09 in 10.0 mi South 10.4 mph - N/A   Scattered Clouds
4:53 PM 88.0 °F 90.3 °F 66.0 °F 48% 30.07 in 10.0 mi SSW 13.8 mph - N/A   Mostly Cloudy
5:53 PM 86.0 °F 88.8 °F 66.9 °F 53% 30.09 in 10.0 mi SSE 4.6 mph - N/A   Mostly Cloudy
6:53 PM 84.0 °F 87.8 °F 69.1 °F 61% 30.08 in 10.0 mi East 4.6 mph - N/A   Mostly Cloudy
7:53 PM 84.9 °F 89.4 °F 70.0 °F 61% 30.06 in 10.0 mi Calm Calm - N/A   Mostly Cloudy
8:53 PM 81.0 °F 84.4 °F 70.0 °F 69% 30.09 in 10.0 mi ESE 8.1 mph - N/A   Mostly Cloudy
9:53 PM 80.1 °F 82.9 °F 69.1 °F 69% 30.10 in 10.0 mi ESE 3.5 mph - N/A   Mostly Cloudy
10:53 PM 78.1 °F - 69.1 °F 74% 30.11 in 10.0 mi Calm Calm - N/A   Scattered Clouds
11:53 PM 79.0 °F - 69.1 °F 72% 30.11 in 10.0 mi Calm Calm - N/A   Partly Cloudy